Milwaukee, WI

8:48 AM CDT on June 26, 2017 (GMT -0500)
Gen Mitchell International

Weather History for KMKE - March, 2014

Change the Weather History Date:

Saturday, March 1, 2014

  Actual Average Record
Temperature  
Mean Temperature 16 °F 30 °F  
Max Temperature 23 °F 37 °F 64 °F (1992)
Min Temperature 8 °F 23 °F -10 °F (1962)
Degree Days  
Heating Degree Days 49 35  
Month to date heating degree days 49 35  
Since 1 July heating degree days 5705 5015  
Cooling Degree Days 0 0  
Month to date cooling degree days 0 0  
Year to date cooling degree days 0 0  
Moisture  
Dew Point 7 °F    
Average Humidity 73    
Maximum Humidity 92    
Minimum Humidity 53    
Precipitation  
Precipitation 0.18 in 0.06 in 0.98 in (1976)
Month to date precipitation 0.18 0.06  
Year to date precipitation 2.92 3.47  
Snow  
Snow 2.70 in 0.30 in 3.00 in (1889)
Month to date snowfall 2.7 0.3  
Since 1 July snowfall 59.5 38.1  
Snow Depth 8.00 in    
Sea Level Pressure  
Sea Level Pressure 30.24 in    
Wind  
Wind Speed 10 mph (NW)    
Max Wind Speed 17 mph    
Max Gust Speed 22 mph    
Visibility 5 miles    
Events Snow    
T = Trace of Precipitation, MM = Missing Value Source: NWS Daily Summary

Daily Weather History Graph

Daily Weather History Graph

Search for Another Location

Airport or City:

Trip Planner

Search our weather history database for the weather conditions in past years. The results will help you decide how hot, cold, wet, or windy it might be!

Date:

Astronomy

Mar. 01, 2014 Rise Set
Actual Time 6:27 AM CST 5:40 PM CST
Civil Twilight 5:59 AM CST 6:09 PM CST
Nautical Twilight 5:26 AM CST 6:42 PM CST
Astronomical Twilight 4:53 AM CST 7:15 PM CST
Moon 6:19 AM CST (3/1) 6:30 PM CST (3/1)
Length of Visible Light 12h 10m
Length of Day
11h 13m
New Moon, 0% of the Moon is Illuminated
Mar 1
New Moon
Mar 8
First Quarter
Mar 16
Full
Mar 23
Last Quarter
Mar 30
New

Hourly Weather History & Observations

Time (CST) Temp. Windchill Dew Point Humidity Pressure Visibility Wind Dir Wind Speed Gust Speed Precip Events Conditions
12:52 AM 23.0 °F 14.7 °F 19.9 °F 88% 30.06 in 3.0 mi NW 6.9 mph - 0.01 in Snow Light Snow
1:00 AM 23.0 °F 15.8 °F 19.9 °F 88% 30.02 in 1.8 mi NW 5.8 mph - 0.00 in Snow Light Snow
1:17 AM 21.9 °F 17.2 °F 19.0 °F 89% 30.02 in 2.0 mi NW 3.5 mph - 0.01 in Snow Light Snow
1:31 AM 21.9 °F 15.7 °F 19.0 °F 89% 30.03 in 2.5 mi NW 4.6 mph - 0.01 in Snow Light Snow
1:44 AM 21.9 °F 15.7 °F 19.0 °F 89% 30.03 in 1.2 mi NW 4.6 mph - 0.01 in Snow Light Snow
1:52 AM 21.9 °F 12.5 °F 19.0 °F 89% 30.06 in 1.5 mi NW 8.1 mph - 0.01 in Snow Light Snow
2:18 AM 21.9 °F 10.4 °F 18.0 °F 85% 30.03 in 1.5 mi NNW 11.5 mph - 0.01 in Snow Light Snow
2:52 AM 21.0 °F 10.6 °F 17.1 °F 85% 30.07 in 1.5 mi NNW 9.2 mph - 0.02 in Snow Light Snow
3:27 AM 19.9 °F 10.1 °F 16.0 °F 85% 30.04 in 5.0 mi NNW 8.1 mph - 0.00 in Snow Light Snow
3:52 AM 19.9 °F 7.9 °F 14.0 °F 78% 30.09 in 8.0 mi NNW 11.5 mph - 0.00 in   Overcast
4:52 AM 19.0 °F 7.5 °F 10.0 °F 68% 30.12 in 8.0 mi NNW 10.4 mph - 0.00 in   Overcast
5:03 AM 19.0 °F 9.0 °F 10.0 °F 68% 30.08 in 9.0 mi NNW 8.1 mph - N/A   Overcast
5:52 AM 18.0 °F 6.1 °F 10.9 °F 74% 30.15 in 9.0 mi NNW 10.4 mph - N/A   Overcast
6:11 AM 17.1 °F 4.3 °F 10.0 °F 74% 30.12 in 9.0 mi NNW 11.5 mph - N/A   Overcast
6:38 AM 16.0 °F 2.3 °F 8.1 °F 71% 30.13 in 10.0 mi North 12.7 mph - N/A   Overcast
6:52 AM 15.1 °F -0.1 °F 7.0 °F 70% 30.18 in 9.0 mi NNW 15.0 mph - N/A   Overcast
7:26 AM 15.1 °F 1.8 °F 3.9 °F 61% 30.19 in 10.0 mi NNW 11.5 mph - N/A   Overcast
7:52 AM 15.1 °F 2.5 °F 3.9 °F 61% 30.23 in 10.0 mi NNW 10.4 mph - N/A   Overcast
8:52 AM 15.1 °F 2.5 °F 3.0 °F 59% 30.25 in 10.0 mi NW 10.4 mph - N/A   Overcast
9:52 AM 15.1 °F 1.8 °F 3.0 °F 59% 30.26 in 10.0 mi NW 11.5 mph - N/A   Mostly Cloudy
10:52 AM 17.1 °F 3.6 °F 3.9 °F 56% 30.27 in 10.0 mi North 12.7 mph - N/A   Mostly Cloudy
11:52 AM 16.0 °F 2.9 °F 1.9 °F 54% 30.29 in 10.0 mi NW 11.5 mph - N/A   Overcast
12:52 PM 16.0 °F 3.6 °F 1.9 °F 54% 30.27 in 10.0 mi NNW 10.4 mph - N/A   Overcast
1:46 PM 15.8 °F 2.7 °F 5.0 °F 62% 30.25 in 2.0 mi NW 11.5 mph - 0.00 in Snow Light Snow
1:52 PM 14.0 °F 1.2 °F 6.1 °F 71% 30.29 in 2.0 mi NNW 10.4 mph - 0.00 in Snow Light Snow
1:59 PM 14.0 °F 1.2 °F 7.0 °F 74% 30.24 in 1.5 mi NNW 10.4 mph - 0.01 in Snow Light Snow
2:52 PM 12.9 °F -0.9 °F 7.0 °F 77% 30.31 in 1.0 mi NW 11.5 mph - 0.02 in Snow Light Snow
2:57 PM 12.9 °F -0.9 °F 7.0 °F 77% 30.26 in 0.8 mi NNW 11.5 mph - 0.00 in Snow Light Snow
3:04 PM 12.0 °F -2.0 °F 6.1 °F 77% 30.26 in 1.2 mi NNW 11.5 mph - 0.00 in Snow Light Snow
3:14 PM 12.0 °F -2.0 °F 6.1 °F 77% 30.26 in 1.8 mi NNW 11.5 mph - 0.01 in Snow Light Snow
3:28 PM 12.0 °F -2.0 °F 6.1 °F 77% 30.27 in 0.8 mi NNW 11.5 mph - 0.01 in Snow Light Snow
3:41 PM 12.0 °F -0.4 °F 7.0 °F 80% 30.29 in 0.8 mi NNW 9.2 mph - 0.02 in Snow Light Snow
3:52 PM 12.0 °F -2.0 °F 7.0 °F 80% 30.33 in 0.8 mi NW 11.5 mph - 0.04 in Snow Light Snow
4:12 PM 10.9 °F 0.2 °F 7.0 °F 84% 30.27 in 1.0 mi NW 6.9 mph - 0.02 in Snow Light Snow
4:45 PM 10.9 °F -1.8 °F 6.1 °F 81% 30.29 in 2.0 mi NW 9.2 mph - 0.03 in Snow Light Snow
4:52 PM 10.9 °F 0.2 °F 5.0 °F 77% 30.34 in 2.5 mi NNW 6.9 mph - 0.03 in Snow Light Snow
5:02 PM 10.9 °F 0.2 °F 6.1 °F 81% 30.30 in 1.5 mi NW 6.9 mph - 0.01 in Snow Light Snow
5:52 PM 10.9 °F 1.4 °F 5.0 °F 77% 30.34 in 2.0 mi NNW 5.8 mph - 0.02 in Snow Light Snow
6:22 PM 10.9 °F -0.8 °F 5.0 °F 77% 30.31 in 3.0 mi NW 8.1 mph - 0.01 in Snow Light Snow
6:29 PM 10.9 °F -0.8 °F 5.0 °F 77% 30.31 in 3.0 mi NW 8.1 mph - 0.01 in Snow Light Snow
6:52 PM 10.9 °F -0.8 °F 3.9 °F 73% 30.36 in 3.0 mi NNW 8.1 mph - 0.01 in Snow Light Snow
7:06 PM 10.9 °F 0.2 °F 5.0 °F 77% 30.33 in 2.5 mi NW 6.9 mph - 0.00 in Snow Light Snow
7:22 PM 10.9 °F -1.8 °F 5.0 °F 77% 30.32 in 1.5 mi NW 9.2 mph - 0.00 in Snow Light Snow
7:52 PM 10.0 °F -0.9 °F 5.0 °F 80% 30.36 in 1.5 mi NW 6.9 mph - 0.01 in Snow Light Snow
8:33 PM 10.0 °F -0.9 °F 5.0 °F 80% 30.33 in 4.0 mi NW 6.9 mph - 0.01 in Snow Light Snow
8:42 PM 10.0 °F -4.5 °F 3.9 °F 76% 30.33 in 6.0 mi NW 11.5 mph - 0.01 in Snow Light Snow
8:52 PM 10.0 °F -5.9 °F 1.9 °F 70% 30.38 in 9.0 mi NW 13.8 mph - 0.01 in Snow Light Snow
9:52 PM 10.0 °F -3.7 °F -0.0 °F 64% 30.40 in 10.0 mi NW 10.4 mph - 0.00 in   Overcast
10:52 PM 9.0 °F -5.1 °F -0.9 °F 64% 30.38 in 9.0 mi WNW 10.4 mph - 0.00 in Snow Light Snow
11:21 PM 9.0 °F -2.2 °F -0.0 °F 67% 30.33 in 2.0 mi NNW 6.9 mph - 0.00 in Snow Light Snow
11:50 PM 8.6 °F -6.3 °F 1.4 °F 73% 30.33 in 6.0 mi NW 11.5 mph - 0.00 in Snow Light Snow
11:52 PM 9.0 °F -5.1 °F 1.9 °F 73% 30.38 in 6.0 mi NW 10.4 mph - 0.00 in Snow Light Snow